Location: Bremen
(53.0758°N, 8.8072°E)
Time: 04:58:54
(UTC+01:00)

Tiangong - Visible Passes

Search period start: 15 February 2026 00:00
Search period end: 25 February 2026 00:00
Orbit: 386 x 392 km, 41.5° (Epoch: 13 February)

Date Brightness Start Highest point End Pass type
(mag) Time Alt. Az. Time Alt. Az. Time Alt. Az.
15 Feb 0.6 19:36:07 10° SSW 19:36:55 11° S 19:37:04 11° S visible
16 Feb 0.6 18:38:07 10° S 18:38:50 11° S 18:39:33 10° SSE visible
18 Feb 0.7 18:17:49 10° SSW 18:18:36 11° S 18:19:22 10° SSE visible
